TITAN 3C TRANSTAGE DEB, 47713

Orbit data source: Space-Track

TITAN 3C TRANSTAGE DEB, 47713 is space debris in HEO originally from a launch on Tue, 21 Dec 1965 UTC launched from the Air Force Eastern Test Range (AFETR). Debris objects in space refer to the collection of defunct objects orbiting the Earth. Examples of debris include non-operational satellites, rocket bodies, and fragments generated from explosions, collisions, or faulty payload assembly.

Loading next visibility...
Identifier
47713, 1965-108DS
Orbit
HEO
Country
Flag of USUS
Related business
Manufacturer
Unknown
Mission
Spacecraft
Bus & Motor
Unknown
Mass
Unknown
Launch date (UTC)
1965-12-21 (60 years ago)
Launch vehicle
Unknown
Launch site
Air Force Eastern Test Range (AFETR)
Object type
Payload
Rocket body
Debris
Shape & HBR
Unknown shape, 0.1 m
Radar Cross Section
Small (<0.1 m²)

Expand to show TLE details & history
Last TLE update: 1 month ago

TLE from 1 month ago
0 TITAN 3C TRANSTAGE DEB
1 47713U 65108DS  25248.99839782 -.00000011  00000-0  16603-3 0  9990
2 47713  26.8941 176.0193 5509690 179.0216 182.9114  4.52176867194445
Epoch: 2025-09-05T23:57Z
TLE epoch observation values (Epoch: 2025-09-05T23:57:41.571Z)
Latitude
0.00005°
Longitude
-168.75044°
Altitude
17,578.538 km
Speed
2.734 km/s
True Right ascension
11h 44m 02s
True Declination
0° 00' 00"
Sunlit
Object was in daylight at epoch
Visualization orbit readout
Latitude
Unknown
Longitude
Unknown
Altitude
Unknown
Speed
Unknown
Apparent Right ascension
Unknown
Apparent Declination
Unknown
Sunlit
N/A
Visualization observer readout
Local Sidereal Time
08:32:00
Azimuth
Unknown
Elevation
Unknown
Doppler factor
Unknown
Orbital elements
Apogee altitude
17,586.007 km
Perigee altitude
559.876 km
Semi-major axis
15,451.079 km
Eccentricity
0.55097
Inclination
26.8941°
RAAN
176.0193°
Arg. of periapsis
179.0216°
True anomaly
181.01016°
Mean anomaly
182.9114°
Eccentric anomaly
181.87727°
Mean motion
1.13007 °/min
Orbital period
318.56 mins
BSTAR
0.00016603
Loading maneuver chart data...
Computing Atmospheric mass density...

Documentation

Showing up to 5 results
|